User: anonymous   Login
Location: Caltech
(34.1382°N, 118.1253°W)
Time: 21:20:06
(UTC-08:00)
Language:

AO-Echo - Orbit

View from above orbital plane
View from above orbital plane
View from above satellite
View from above satellite

Ground track
Ground track

The orbit data is extracted from the following two-line orbital elements,

1 28375U 04025K   17346.50291413  .00000032  00000-0  22564-4 0  9990
2 28375  98.3722 276.3497 0083671 105.5981 255.4463 14.41867174707512
Epoch (UTC): 12 December 2017 12:04:11
Eccentricity: 0.0083671
inclination: 98.3722°
perigee height: 692 km
apogee height: 812 km
right ascension of ascending node: 276.3497°
argument of perigee: 105.5981°
revolutions per day: 14.41867174
mean anomaly at epoch: 255.4463°
orbit number at epoch: 70751

The dashed part of the orbit path shows where the satellite is in the earth's shadow,  

DLR